User: anonymous   Login
Location: Brno
(49.2000°N, 16.6330°E)
Time: 06:52:01
(UTC+01:00)
Language:

Cosmos 1459 Rocket - Orbit

View from above orbital plane
View from above orbital plane
View from above satellite
View from above satellite

Ground track
Ground track

The orbit data is extracted from the following two-line orbital elements,

1 14059U 83042B   16036.62293769 +.00000122 +00000-0 +10512-3 0  9993
2 14059 082.9694 071.2335 0041652 222.7975 287.3023 13.78542414646934
Epoch (UTC): 05 February 2016 14:57:01
Eccentricity: 0.0041652
inclination: 82.9694°
perigee height: 938 km
apogee height: 999 km
right ascension of ascending node: 71.2335°
argument of perigee: 222.7975°
revolutions per day: 13.78542414
mean anomaly at epoch: 287.3023°
orbit number at epoch: 64693

The dashed part of the orbit path shows where the satellite is in the earth's shadow,  

DLR